QPF
0.00 0.00 0.00 0.00 0.00 0.00 0.00 0.00 0.01 0.00 0.00 0.01 0.01 0.01 0.01 0.01 0.02 0.02 0.03 0.02 0.02 0.01 0.02 0.02 0.02 0.01 0.01 0.01 0.01 0.01 0.01 0.01 0.02 0.02 0.02 0.03 0.02 0.02 0.02 0.02 0.03 0.03 0.03 0.03
0.00 0.00 0.00 0.00 0.00 0.00 0.00 0.00 0.00 0.00 0.01 0.01 0.01 0.01 0.01 0.01 0.02 0.03 0.02 0.02 0.01 0.01 0.01 0.02 0.02 0.01 0.01 0.01 0.01 0.01 0.01 0.01 0.01 0.02 0.02 0.03 0.02 0.02 0.02 0.02 0.02 0.02 0.02 0.03
0.00 0.00 0.00 0.00 0.00 0.00 0.00 0.00 0.00 0.00 0.01 0.01 0.01 0.01 0.01 0.02 0.03 0.02 0.02 0.02 0.01 0.01 0.01 0.01 0.01 0.01 0.01 0.01 0.01 0.02 0.03 0.02 0.02 0.03 0.03 0.03 0.03 0.03 0.02 0.02 0.02 0.02 0.03 0.06
0.00 0.00 0.00 0.00 0.00 0.00 0.00 0.00 0.00 0.01 0.02 0.02 0.01 0.01 0.01 0.01 0.01 0.01 0.01 0.01 0.01 0.01 0.01 0.01 0.01 0.02 0.01 0.01 0.02 0.02 0.02 0.02 0.03 0.05 0.05 0.04 0.04 0.04 0.03 0.03 0.04 0.04 0.05 0.05
0.00 0.00 0.00 0.00 0.00 0.00 0.00 0.00 0.01 0.01 0.02 0.01 0.00 0.00 0.01 0.01 0.01 0.01 0.00 0.00 0.01 0.01 0.01 0.01 0.02 0.02 0.02 0.02 0.02 0.03 0.03 0.03 0.03 0.05 0.07 0.06 0.06 0.05 0.05 0.05 0.06 0.05 0.04 0.04
0.00 0.00 0.00 0.00 0.00 0.00 0.00 0.01 0.01 0.02 0.02 0.01 0.00 0.00 0.00 0.00 0.00 0.00 0.00 0.00 0.00 0.01 0.01 0.01 0.01 0.01 0.02 0.03 0.04 0.04 0.04 0.04 0.05 0.08 0.09 0.09 0.10 0.10 0.09 0.09 0.07 0.04 0.04 0.04
0.01 0.00 0.00 0.00 0.00 0.00 0.01 0.01 0.01 0.01 0.01 0.00 0.00 0.00 0.00 0.00 0.00 0.00 0.00 0.00 0.00 0.01 0.01 0.01 0.01 0.01 0.01 0.01 0.02 0.03 0.04 0.05 0.08 0.11 0.10 0.11 0.12 0.11 0.09 0.09 0.09 0.06 0.05 0.04
0.01 0.00 0.00 0.00 0.00 0.00 0.01 0.01 0.01 0.01 0.00 0.00 0.00 0.00 0.00 0.00 0.00 0.00 0.00 0.00 0.00 0.00 0.00 0.00 0.01 0.01 0.00 0.01 0.02 0.02 0.03 0.04 0.05 0.06 0.06 0.06 0.06 0.05 0.05 0.07 0.07 0.06 0.05 0.04
0.01 0.00 0.00 0.00 0.00 0.00 0.01 0.01 0.00 0.01 0.00 0.01 0.00 0.00 0.00 0.00 0.00 0.00 0.00 0.00 0.00 0.00 0.00 0.00 0.01 0.01 0.01 0.00 0.00 0.00 0.02 0.02 0.03 0.04 0.04 0.03 0.01 0.01 0.02 0.03 0.03 0.03 0.03 0.03
0.00 0.00 0.00 0.00 0.00 0.00 0.01 0.01 0.01 0.01 0.01 0.00 0.00 0.00 0.00 0.00 0.00 0.00 0.00 0.00 0.00 0.00 0.00 0.00 0.01 0.01 0.01 0.00 0.00 0.00 0.01 0.02 0.03 0.04 0.03 0.02 0.00 0.00 0.01 0.02 0.02 0.02 0.02 0.02
0.00 0.00 0.00 0.00 0.00 0.00 0.01 0.01 0.01 0.01 0.01 0.00 0.00 0.00 0.00 0.00 0.00 0.01 0.00 0.00 0.00 0.00 0.00 0.01 0.01 0.01 0.01 0.01 0.01 0.01 0.01 0.02 0.02 0.01 0.01 0.01 0.00 0.00 0.01 0.01 0.02 0.01 0.01 0.01
0.00 0.00 0.00 0.00 0.00 0.00 0.01 0.00 0.01 0.01 0.01 0.00 0.00 0.00 0.00 0.00 0.00 0.00 0.00 0.00 0.00 0.00 0.01 0.01 0.01 0.01 0.01 0.01 0.02 0.02 0.03 0.02 0.01 0.01 0.00 0.00 0.00 0.00 0.01 0.01 0.01 0.01 0.02 0.03
0.00 0.00 0.00 0.00 0.00 0.00 0.00 0.00 0.00 0.01 0.01 0.00 0.00 0.00 0.01 0.01 0.00 0.00 0.00 0.00 0.00 0.01 0.01 0.01 0.02 0.01 0.01 0.01 0.01 0.01 0.01 0.01 0.02 0.01 0.01 0.00 0.00 0.00 0.00 0.01 0.01 0.02 0.03 0.04
0.00 0.00 0.00 0.00 0.00 0.00 0.00 0.00 0.00 0.00 0.00 0.00 0.00 0.00 0.01 0.01 0.01 0.01 0.01 0.01 0.01 0.01 0.02 0.02 0.01 0.01 0.01 0.01 0.01 0.00 0.00 0.01 0.03 0.03 0.02 0.01 0.00 0.00 0.01 0.01 0.01 0.02 0.03 0.03
0.00 0.00 0.00 0.00 0.00 0.00 0.00 0.00 0.00 0.00 0.00 0.00 0.00 0.00 0.00 0.01 0.01 0.01 0.01 0.01 0.01 0.02 0.02 0.03 0.02 0.01 0.01 0.01 0.01 0.00 0.01 0.02 0.02 0.03 0.03 0.02 0.01 0.01 0.00 0.01 0.01 0.03 0.04 0.04
0.01 0.01 0.01 0.00 0.00 0.00 0.00 0.00 0.00 0.00 0.00 0.00 0.00 0.00 0.00 0.01 0.01 0.01 0.01 0.01 0.01 0.01 0.01 0.02 0.01 0.01 0.01 0.01 0.01 0.00 0.01 0.01 0.02 0.03 0.03 0.04 0.03 0.02 0.01 0.02 0.04 0.04 0.05 0.04
0.01 0.01 0.01 0.01 0.00 0.00 0.00 0.00 0.00 0.00 0.00 0.00 0.00 0.00 0.01 0.01 0.01 0.00 0.00 0.00 0.01 0.01 0.01 0.01 0.01 0.00 0.00 0.01 0.01 0.01 0.01 0.01 0.01 0.02 0.03 0.04 0.05 0.05 0.04 0.04 0.05 0.03 0.03 0.02
0.00 0.01 0.01 0.01 0.01 0.00 0.00 0.00 0.00 0.00 0.01 0.01 0.01 0.01 0.01 0.01 0.01 0.01 0.01 0.00 0.00 0.01 0.01 0.01 0.01 0.00 0.00 0.01 0.01 0.02 0.01 0.01 0.00 0.01 0.01 0.03 0.03 0.04 0.03 0.02 0.02 0.02 0.02 0.02
0.00 0.01 0.01 0.01 0.01 0.00 0.00 0.01 0.01 0.01 0.00 0.00 0.00 0.01 0.01 0.01 0.01 0.01 0.01 0.01 0.01 0.01 0.01 0.01 0.00 0.00 0.01 0.01 0.02 0.03 0.02 0.01 0.00 0.00 0.01 0.02 0.02 0.03 0.02 0.02 0.02 0.02 0.03 0.03
0.00 0.01 0.01 0.01 0.01 0.00 0.00 0.00 0.00 0.00 0.00 0.00 0.00 0.00 0.00 0.01 0.00 0.01 0.01 0.01 0.01 0.01 0.01 0.01 0.00 0.00 0.01 0.01 0.02 0.02 0.01 0.01 0.00 0.01 0.01 0.02 0.03 0.04 0.03 0.03 0.04 0.04 0.03 0.03
0.00 0.00 0.00 0.00 0.00 0.00 0.00 0.00 0.00 0.00 0.00 0.00 0.00 0.00 0.00 0.00 0.00 0.00 0.00 0.01 0.01 0.01 0.01 0.01 0.01 0.01 0.01 0.02 0.02 0.01 0.01 0.01 0.02 0.03 0.02 0.02 0.02 0.04 0.04 0.03 0.03 0.03 0.02 0.02
0.00 0.00 0.00 0.00 0.00 0.00 0.00 0.00 0.00 0.00 0.00 0.00 0.00 0.00 0.00 0.01 0.01 0.01 0.00 0.01 0.01 0.01 0.02 0.02 0.03 0.04 0.02 0.02 0.02 0.02 0.02 0.02 0.03 0.03 0.03 0.02 0.03 0.02 0.02 0.03 0.03 0.03 0.03 0.02
0.00 0.00 0.00 0.00 0.00 0.00 0.00 0.01 0.01 0.00 0.00 0.00 0.00 0.01 0.01 0.01 0.01 0.01 0.01 0.01 0.02 0.03 0.04 0.03 0.03 0.04 0.04 0.04 0.05 0.04 0.04 0.05 0.04 0.04 0.03 0.03 0.03 0.03 0.03 0.04 0.05 0.04 0.04 0.03
0.00 0.00 0.01 0.01 0.00 0.00 0.00 0.00 0.01 0.01 0.00 0.00 0.00 0.01 0.01 0.01 0.01 0.01 0.01 0.02 0.03 0.04 0.05 0.06 0.05 0.06 0.07 0.09 0.10 0.09 0.07 0.07 0.06 0.05 0.04 0.03 0.03 0.02 0.03 0.03 0.04 0.05 0.05 0.04
0.00 0.00 0.00 0.00 0.01 0.01 0.01 0.01 0.01 0.01 0.00 0.00 0.01 0.01 0.01 0.01 0.01 0.01 0.02 0.02 0.02 0.02 0.02 0.03 0.03 0.03 0.04 0.06 0.08 0.10 0.10 0.09 0.07 0.06 0.05 0.05 0.05 0.05 0.04 0.03 0.03 0.03 0.04 0.04
0.00 0.00 0.01 0.01 0.00 0.01 0.00 0.00 0.01 0.01 0.00 0.00 0.00 0.01 0.01 0.01 0.01 0.02 0.02 0.02 0.02 0.02 0.02 0.03 0.03 0.04 0.05 0.07 0.07 0.08 0.10 0.10 0.09 0.08 0.06 0.06 0.06 0.05 0.04 0.03 0.03 0.04 0.04 0.04
MSLP
1008.89 1009.86 1010.74 1011.50 1012.17 1012.76 1013.32 1013.86 1014.39 1014.88 1015.28 1015.57 1015.70 1015.65 1015.44 1015.09 1014.65 1014.19 1013.74 1013.32 1012.95 1012.61 1012.28 1011.92 1011.51 1011.06 1010.57 1010.08 1009.61 1009.20 1008.86 1008.59 1008.36 1008.16 1007.95 1007.71 1007.43 1007.13 1006.83 1006.57 1006.37 1006.24 1006.17 1006.14
1009.54 1010.38 1011.12 1011.77 1012.38 1012.98 1013.60 1014.27 1014.94 1015.57 1016.10 1016.45 1016.60 1016.51 1016.21 1015.76 1015.23 1014.70 1014.23 1013.84 1013.54 1013.29 1013.04 1012.75 1012.38 1011.92 1011.38 1010.81 1010.24 1009.73 1009.31 1009.00 1008.76 1008.57 1008.40 1008.20 1007.95 1007.66 1007.36 1007.07 1006.83 1006.67 1006.59 1006.56
1010.04 1010.72 1011.30 1011.84 1012.39 1013.01 1013.72 1014.52 1015.36 1016.15 1016.80 1017.24 1017.40 1017.27 1016.90 1016.35 1015.72 1015.13 1014.63 1014.27 1014.03 1013.87 1013.72 1013.52 1013.21 1012.76 1012.19 1011.56 1010.92 1010.33 1009.84 1009.48 1009.23 1009.06 1008.92 1008.75 1008.54 1008.27 1007.97 1007.66 1007.40 1007.20 1007.09 1007.06
1010.41 1010.91 1011.35 1011.78 1012.29 1012.94 1013.75 1014.71 1015.72 1016.68 1017.47 1017.98 1018.16 1017.99 1017.54 1016.88 1016.16 1015.49 1014.96 1014.60 1014.42 1014.34 1014.29 1014.18 1013.94 1013.53 1012.97 1012.31 1011.62 1010.98 1010.44 1010.05 1009.79 1009.63 1009.51 1009.38 1009.20 1008.96 1008.66 1008.35 1008.06 1007.83 1007.69 1007.63
1010.70 1011.03 1011.32 1011.67 1012.16 1012.86 1013.79 1014.89 1016.08 1017.20 1018.11 1018.70 1018.89 1018.68 1018.14 1017.38 1016.56 1015.80 1015.22 1014.86 1014.71 1014.70 1014.74 1014.73 1014.57 1014.22 1013.70 1013.04 1012.33 1011.66 1011.09 1010.67 1010.40 1010.25 1010.15 1010.06 1009.92 1009.70 1009.42 1009.11 1008.80 1008.54 1008.36 1008.25
1010.95 1011.12 1011.30 1011.58 1012.07 1012.82 1013.86 1015.10 1016.44 1017.69 1018.70 1019.35 1019.54 1019.29 1018.67 1017.81 1016.89 1016.05 1015.41 1015.04 1014.91 1014.97 1015.09 1015.17 1015.10 1014.83 1014.37 1013.74 1013.04 1012.36 1011.77 1011.33 1011.05 1010.89 1010.81 1010.74 1010.63 1010.45 1010.19 1009.88 1009.57 1009.28 1009.05 1008.90
1011.18 1011.23 1011.31 1011.55 1012.04 1012.85 1013.97 1015.32 1016.75 1018.09 1019.17 1019.84 1020.02 1019.73 1019.05 1018.11 1017.11 1016.21 1015.53 1015.15 1015.05 1015.15 1015.36 1015.53 1015.56 1015.38 1014.99 1014.42 1013.74 1013.07 1012.47 1012.02 1011.71 1011.55 1011.46 1011.41 1011.32 1011.17 1010.94 1010.64 1010.32 1010.02 1009.76 1009.55
1011.38 1011.34 1011.36 1011.57 1012.07 1012.91 1014.07 1015.47 1016.95 1018.32 1019.40 1020.07 1020.23 1019.91 1019.18 1018.20 1017.17 1016.24 1015.56 1015.19 1015.13 1015.29 1015.57 1015.83 1015.95 1015.87 1015.56 1015.06 1014.43 1013.77 1013.18 1012.70 1012.38 1012.19 1012.09 1012.03 1011.96 1011.83 1011.62 1011.35 1011.04 1010.73 1010.44 1010.20
1011.50 1011.41 1011.41 1011.62 1012.12 1012.96 1014.12 1015.50 1016.94 1018.27 1019.32 1019.94 1020.07 1019.73 1019.01 1018.04 1017.03 1016.14 1015.50 1015.18 1015.17 1015.40 1015.75 1016.09 1016.31 1016.32 1016.09 1015.66 1015.09 1014.47 1013.87 1013.39 1013.03 1012.81 1012.69 1012.62 1012.54 1012.42 1012.24 1011.99 1011.70 1011.39 1011.10 1010.84
1011.48 1011.41 1011.43 1011.65 1012.16 1012.97 1014.06 1015.36 1016.70 1017.92 1018.87 1019.42 1019.52 1019.19 1018.51 1017.62 1016.70 1015.91 1015.37 1015.14 1015.20 1015.50 1015.93 1016.34 1016.63 1016.72 1016.58 1016.22 1015.71 1015.12 1014.55 1014.05 1013.68 1013.42 1013.27 1013.17 1013.08 1012.97 1012.80 1012.58 1012.31 1012.02 1011.74 1011.47
1011.30 1011.30 1011.39 1011.66 1012.15 1012.91 1013.90 1015.05 1016.22 1017.28 1018.08 1018.55 1018.62 1018.32 1017.73 1016.98 1016.22 1015.59 1015.20 1015.09 1015.25 1015.62 1016.10 1016.57 1016.91 1017.06 1016.99 1016.70 1016.25 1015.71 1015.17 1014.68 1014.30 1014.02 1013.83 1013.70 1013.60 1013.48 1013.32 1013.12 1012.88 1012.62 1012.35 1012.09
1010.98 1011.11 1011.31 1011.64 1012.13 1012.82 1013.67 1014.62 1015.57 1016.42 1017.06 1017.42 1017.47 1017.23 1016.77 1016.21 1015.66 1015.24 1015.03 1015.06 1015.33 1015.77 1016.29 1016.78 1017.15 1017.33 1017.31 1017.08 1016.70 1016.22 1015.73 1015.27 1014.88 1014.59 1014.38 1014.23 1014.10 1013.98 1013.82 1013.64 1013.42 1013.19 1012.95 1012.71
1010.60 1010.90 1011.23 1011.64 1012.13 1012.73 1013.41 1014.14 1014.85 1015.46 1015.92 1016.17 1016.21 1016.05 1015.75 1015.40 1015.09 1014.91 1014.90 1015.09 1015.45 1015.94 1016.47 1016.95 1017.32 1017.51 1017.52 1017.35 1017.03 1016.63 1016.20 1015.78 1015.43 1015.14 1014.92 1014.75 1014.61 1014.46 1014.31 1014.13 1013.94 1013.73 1013.52 1013.30
1010.27 1010.75 1011.22 1011.70 1012.19 1012.69 1013.19 1013.68 1014.13 1014.50 1014.77 1014.92 1014.95 1014.88 1014.76 1014.64 1014.59 1014.64 1014.83 1015.16 1015.60 1016.11 1016.63 1017.08 1017.41 1017.60 1017.62 1017.49 1017.25 1016.92 1016.57 1016.23 1015.92 1015.66 1015.44 1015.26 1015.10 1014.94 1014.78 1014.61 1014.43 1014.24 1014.05 1013.86
1010.08 1010.73 1011.32 1011.86 1012.31 1012.70 1013.01 1013.26 1013.45 1013.59 1013.68 1013.73 1013.76 1013.79 1013.85 1013.96 1014.15 1014.43 1014.80 1015.26 1015.76 1016.28 1016.75 1017.15 1017.43 1017.59 1017.62 1017.53 1017.35 1017.12 1016.86 1016.60 1016.35 1016.13 1015.93 1015.75 1015.58 1015.40 1015.23 1015.06 1014.88 1014.71 1014.54 1014.37
1010.10 1010.87 1011.54 1012.08 1012.48 1012.73 1012.84 1012.85 1012.80 1012.72 1012.65 1012.63 1012.67 1012.80 1013.03 1013.35 1013.77 1014.25 1014.79 1015.35 1015.90 1016.40 1016.83 1017.16 1017.39 1017.51 1017.54 1017.49 1017.39 1017.24 1017.08 1016.90 1016.73 1016.56 1016.39 1016.21 1016.03 1015.85 1015.66 1015.48 1015.31 1015.15 1014.99 1014.84
1010.34 1011.14 1011.82 1012.32 1012.61 1012.70 1012.61 1012.40 1012.13 1011.86 1011.67 1011.59 1011.66 1011.89 1012.27 1012.79 1013.41 1014.07 1014.75 1015.40 1015.97 1016.46 1016.85 1017.12 1017.30 1017.40 1017.43 1017.42 1017.38 1017.32 1017.25 1017.17 1017.07 1016.95 1016.80 1016.64 1016.45 1016.26 1016.06 1015.87 1015.70 1015.55 1015.40 1015.27
1010.72 1011.48 1012.08 1012.46 1012.61 1012.52 1012.23 1011.82 1011.37 1010.96 1010.67 1010.57 1010.68 1011.01 1011.55 1012.24 1013.03 1013.85 1014.65 1015.37 1015.97 1016.46 1016.81 1017.04 1017.19 1017.28 1017.33 1017.36 1017.38 1017.40 1017.42 1017.41 1017.37 1017.30 1017.18 1017.02 1016.83 1016.63 1016.42 1016.23 1016.06 1015.91 1015.78 1015.66
1011.12 1011.74 1012.18 1012.40 1012.36 1012.08 1011.62 1011.05 1010.46 1009.96 1009.64 1009.55 1009.73 1010.17 1010.84 1011.68 1012.62 1013.58 1014.47 1015.26 1015.90 1016.39 1016.73 1016.96 1017.10 1017.19 1017.26 1017.33 1017.42 1017.51 1017.59 1017.64 1017.65 1017.60 1017.50 1017.34 1017.15 1016.95 1016.74 1016.55 1016.39 1016.25 1016.13 1016.02
1011.40 1011.81 1012.03 1012.04 1011.81 1011.36 1010.76 1010.07 1009.42 1008.90 1008.59 1008.55 1008.82 1009.37 1010.17 1011.15 1012.21 1013.27 1014.25 1015.10 1015.78 1016.29 1016.65 1016.88 1017.03 1017.15 1017.25 1017.37 1017.50 1017.64 1017.76 1017.85 1017.89 1017.86 1017.76 1017.61 1017.42 1017.21 1017.00 1016.82 1016.67 1016.55 1016.45 1016.35
1011.43 1011.59 1011.58 1011.37 1010.96 1010.38 1009.68 1008.95 1008.30 1007.82 1007.58 1007.64 1008.02 1008.69 1009.61 1010.69 1011.85 1012.99 1014.03 1014.92 1015.64 1016.18 1016.56 1016.82 1017.01 1017.16 1017.30 1017.45 1017.62 1017.79 1017.94 1018.04 1018.08 1018.06 1017.96 1017.80 1017.61 1017.40 1017.21 1017.04 1016.90 1016.80 1016.72 1016.64
1011.16 1011.06 1010.82 1010.43 1009.88 1009.21 1008.49 1007.79 1007.22 1006.84 1006.72 1006.92 1007.42 1008.20 1009.22 1010.38 1011.59 1012.78 1013.86 1014.78 1015.53 1016.09 1016.51 1016.80 1017.02 1017.21 1017.38 1017.57 1017.76 1017.94 1018.09 1018.19 1018.23 1018.19 1018.08 1017.92 1017.73 1017.53 1017.35 1017.19 1017.08 1016.99 1016.92 1016.85
1010.59 1010.27 1009.83 1009.30 1008.67 1007.99 1007.32 1006.72 1006.28 1006.06 1006.11 1006.45 1007.08 1007.97 1009.05 1010.26 1011.50 1012.69 1013.77 1014.69 1015.45 1016.03 1016.47 1016.80 1017.05 1017.27 1017.48 1017.68 1017.88 1018.06 1018.20 1018.28 1018.30 1018.25 1018.14 1017.97 1017.78 1017.59 1017.42 1017.28 1017.18 1017.10 1017.04 1016.97
1009.80 1009.29 1008.72 1008.11 1007.47 1006.85 1006.29 1005.85 1005.60 1005.57 1005.80 1006.30 1007.05 1008.02 1009.14 1010.35 1011.57 1012.73 1013.78 1014.68 1015.41 1016.00 1016.45 1016.80 1017.08 1017.33 1017.55 1017.76 1017.96 1018.13 1018.25 1018.32 1018.32 1018.25 1018.13 1017.96 1017.78 1017.60 1017.44 1017.31 1017.22 1017.14 1017.08 1017.00
1008.88 1008.25 1007.62 1006.99 1006.41 1005.90 1005.50 1005.26 1005.22 1005.40 1005.82 1006.46 1007.31 1008.32 1009.45 1010.63 1011.79 1012.88 1013.86 1014.71 1015.41 1015.97 1016.42 1016.78 1017.08 1017.34 1017.58 1017.79 1017.98 1018.13 1018.24 1018.29 1018.27 1018.20 1018.07 1017.91 1017.74 1017.57 1017.42 1017.30 1017.20 1017.12 1017.03 1016.94
1007.95 1007.27 1006.62 1006.05 1005.56 1005.20 1005.00 1004.97 1005.14 1005.51 1006.09 1006.85 1007.76 1008.80 1009.89 1011.01 1012.08 1013.08 1013.98 1014.75 1015.40 1015.94 1016.37 1016.73 1017.04 1017.30 1017.54 1017.76 1017.94 1018.08 1018.17 1018.21 1018.18 1018.11 1017.99 1017.84 1017.68 1017.52 1017.38 1017.25 1017.14 1017.04 1016.93 1016.81
Thickness
5812 5797 5788 5794 5800 5800 5794 5786 5781 5789 5802 5793 5784 5782 5787 5792 5789 5785 5782 5781 5780 5781 5783 5784 5782 5780 5777 5774 5772 5769 5767 5765 5762 5757 5753 5750 5748 5748 5747 5747 5746 5745 5744 5743
5796 5791 5807 5813 5810 5804 5796 5785 5783 5791 5801 5793 5782 5781 5789 5791 5789 5788 5785 5783 5782 5781 5781 5782 5781 5779 5776 5774 5771 5769 5766 5764 5761 5758 5755 5752 5749 5747 5746 5745 5744 5743 5742 5741
5793 5804 5818 5813 5806 5799 5794 5787 5786 5785 5791 5791 5782 5775 5782 5790 5792 5791 5789 5787 5785 5783 5780 5780 5779 5777 5776 5774 5772 5770 5767 5764 5761 5758 5755 5751 5747 5745 5743 5742 5741 5741 5740 5739
5799 5813 5814 5809 5804 5803 5788 5803 5799 5790 5775 5765 5773 5752 5774 5782 5783 5786 5787 5786 5786 5786 5783 5781 5779 5777 5776 5775 5773 5770 5767 5763 5761 5758 5753 5749 5744 5740 5739 5739 5739 5738 5737 5736
5798 5811 5810 5804 5809 5810 5800 5808 5799 5787 5772 5761 5765 5753 5764 5778 5776 5782 5787 5788 5788 5787 5785 5782 5781 5779 5777 5776 5772 5769 5765 5762 5759 5756 5753 5748 5744 5741 5739 5738 5736 5735 5734 5733
5805 5818 5819 5815 5820 5818 5809 5797 5785 5772 5761 5747 5758 5751 5756 5770 5781 5787 5790 5792 5790 5788 5786 5784 5782 5780 5777 5775 5772 5768 5763 5760 5758 5754 5751 5747 5743 5740 5737 5735 5732 5731 5731 5730
5793 5806 5818 5822 5807 5807 5801 5774 5749 5745 5735 5740 5757 5753 5759 5787 5794 5795 5794 5794 5793 5790 5787 5783 5780 5778 5775 5772 5769 5766 5762 5758 5756 5753 5749 5746 5742 5738 5735 5733 5731 5728 5727 5726
5774 5778 5807 5816 5808 5795 5791 5779 5750 5737 5732 5740 5754 5750 5774 5797 5801 5801 5800 5797 5794 5790 5787 5783 5781 5778 5774 5771 5768 5765 5761 5757 5755 5751 5748 5745 5742 5738 5736 5733 5730 5727 5725 5725
5771 5777 5810 5819 5820 5807 5786 5775 5776 5751 5743 5737 5745 5760 5780 5796 5796 5796 5795 5794 5791 5790 5787 5784 5782 5778 5774 5771 5767 5764 5760 5756 5753 5750 5747 5744 5741 5738 5735 5732 5729 5727 5724 5723
5787 5779 5800 5811 5814 5806 5799 5781 5762 5747 5731 5729 5743 5752 5762 5783 5786 5789 5789 5789 5789 5788 5786 5783 5780 5777 5774 5772 5768 5764 5760 5756 5752 5749 5746 5743 5739 5736 5733 5729 5726 5724 5722 5720
5793 5778 5785 5795 5794 5790 5787 5776 5760 5745 5744 5730 5728 5748 5786 5787 5789 5787 5789 5790 5789 5787 5785 5782 5779 5776 5773 5770 5766 5762 5758 5754 5750 5747 5743 5740 5737 5734 5730 5727 5724 5722 5720 5717
5788 5771 5763 5780 5798 5804 5796 5783 5765 5753 5742 5736 5733 5751 5797 5795 5794 5792 5790 5790 5789 5787 5785 5782 5778 5774 5770 5766 5763 5760 5757 5753 5749 5745 5741 5738 5734 5731 5728 5725 5722 5720 5717 5714
5785 5766 5751 5758 5771 5786 5785 5781 5771 5759 5743 5731 5733 5756 5793 5791 5790 5790 5789 5788 5786 5784 5781 5778 5774 5770 5766 5763 5761 5758 5755 5751 5748 5744 5739 5735 5731 5728 5725 5723 5720 5717 5714 5711
5791 5764 5757 5750 5759 5774 5777 5777 5770 5762 5744 5738 5745 5761 5778 5782 5783 5785 5786 5785 5783 5781 5777 5774 5770 5767 5764 5760 5758 5755 5752 5749 5746 5741 5736 5732 5728 5725 5723 5720 5717 5715 5712 5708
5783 5762 5765 5768 5776 5778 5778 5777 5773 5768 5763 5754 5761 5762 5775 5779 5781 5783 5784 5782 5779 5776 5774 5771 5768 5765 5762 5758 5755 5753 5750 5747 5743 5738 5733 5729 5726 5723 5720 5717 5714 5712 5708 5705
5769 5761 5762 5763 5772 5773 5771 5776 5774 5773 5771 5767 5768 5768 5782 5782 5781 5779 5779 5777 5774 5774 5772 5771 5768 5764 5760 5757 5753 5750 5747 5743 5740 5735 5731 5727 5723 5720 5717 5714 5711 5708 5705 5702
5754 5752 5745 5743 5758 5764 5754 5769 5772 5772 5774 5770 5764 5772 5778 5776 5776 5776 5776 5775 5773 5772 5770 5768 5766 5763 5760 5756 5752 5747 5744 5740 5736 5732 5728 5724 5720 5717 5714 5712 5708 5704 5701 5698
5748 5741 5731 5730 5742 5732 5756 5778 5778 5773 5772 5773 5773 5774 5775 5775 5776 5777 5776 5774 5771 5770 5768 5766 5764 5761 5758 5754 5750 5746 5741 5736 5732 5728 5724 5721 5717 5714 5711 5707 5703 5700 5697 5694
5747 5737 5723 5716 5720 5733 5755 5769 5770 5764 5762 5772 5769 5770 5771 5772 5770 5769 5774 5774 5772 5770 5768 5765 5764 5760 5755 5751 5747 5742 5736 5731 5727 5724 5720 5717 5714 5710 5706 5703 5700 5697 5693 5690
5735 5733 5721 5712 5716 5717 5746 5768 5775 5766 5751 5770 5768 5765 5764 5764 5752 5758 5770 5770 5768 5766 5764 5761 5759 5755 5750 5747 5743 5738 5732 5727 5723 5720 5717 5714 5710 5707 5703 5700 5696 5693 5689 5686
5721 5716 5712 5709 5713 5723 5749 5761 5766 5740 5746 5767 5765 5763 5761 5758 5758 5763 5766 5763 5762 5760 5758 5756 5752 5748 5745 5741 5737 5731 5727 5722 5720 5716 5711 5709 5706 5702 5699 5696 5692 5688 5685 5681
5709 5706 5703 5701 5705 5716 5747 5750 5744 5745 5758 5761 5761 5760 5758 5757 5758 5759 5758 5756 5754 5752 5750 5748 5744 5740 5738 5735 5730 5725 5720 5718 5715 5710 5705 5703 5700 5697 5695 5690 5686 5682 5679 5675
5703 5706 5705 5707 5713 5729 5738 5742 5748 5750 5751 5754 5754 5755 5754 5751 5750 5750 5749 5748 5747 5745 5742 5739 5736 5733 5730 5728 5724 5719 5715 5712 5708 5703 5699 5697 5695 5691 5688 5684 5680 5676 5672 5668
5700 5704 5702 5705 5716 5726 5733 5738 5743 5746 5747 5750 5751 5750 5748 5745 5744 5742 5741 5739 5738 5736 5733 5731 5728 5724 5721 5720 5717 5714 5709 5705 5700 5696 5693 5691 5689 5685 5682 5679 5675 5671 5667 5663
5694 5696 5694 5697 5709 5718 5727 5731 5735 5738 5741 5742 5743 5743 5742 5738 5735 5733 5731 5730 5728 5727 5724 5722 5719 5716 5714 5712 5710 5708 5704 5699 5694 5691 5688 5685 5683 5679 5676 5673 5670 5667 5664 5660
5686 5688 5687 5691 5704 5706 5713 5724 5728 5729 5730 5732 5732 5731 5732 5730 5727 5725 5722 5721 5720 5718 5716 5713 5710 5708 5706 5704 5702 5699 5696 5693 5689 5685 5682 5679 5677 5673 5670 5666 5663 5661 5659 5656